TimePST,TemperatureF,Dew PointF,Humidity,Sea Level PressureIn,VisibilityMPH,Wind Direction,Wind SpeedMPH,Gust SpeedMPH,PrecipitationIn,Events,Conditions,WindDirDegrees,DateUTC
12:15 AM,55.4,55.4,100,30.31,8.0,Calm,Calm,-,0.00,,Overcast,0,2012-11-05 08:15:00
12:35 AM,53.6,53.6,100,30.31,8.0,Calm,Calm,-,0.00,,Overcast,0,2012-11-05 08:35:00
12:55 AM,53.6,53.6,100,30.32,7.0,Calm,Calm,-,0.00,,Overcast,0,2012-11-05 08:55:00
1:15 AM,53.6,53.6,100,30.33,7.0,Calm,Calm,-,0.00,,Overcast,0,2012-11-05 09:15:00
1:55 AM,53.6,53.6,100,30.34,7.0,Calm,Calm,-,0.00,,Overcast,0,2012-11-05 09:55:00
2:35 AM,53.6,53.6,100,30.35,7.0,South,3.5,-,0.00,,Overcast,170,2012-11-05 10:35:00
2:55 AM,53.6,53.6,100,30.36,7.0,Calm,Calm,-,0.00,,Mostly Cloudy,0,2012-11-05 10:55:00
3:15 AM,51.8,51.8,100,30.36,6.0,SSW,4.6,-,0.00,,Partly Cloudy,210,2012-11-05 11:15:00
3:35 AM,51.8,51.8,100,30.36,7.0,SSW,5.8,-,0.00,,Clear,210,2012-11-05 11:35:00
3:55 AM,51.8,51.8,100,30.36,7.0,SSW,4.6,-,0.00,,Clear,200,2012-11-05 11:55:00
4:15 AM,51.8,51.8,100,30.37,7.0,Calm,Calm,-,0.00,,Clear,0,2012-11-05 12:15:00
4:55 AM,51.8,51.8,100,30.38,6.0,Calm,Calm,-,0.00,,Clear,0,2012-11-05 12:55:00
5:15 AM,50.0,50.0,100,30.38,5.0,Calm,Calm,-,0.00,,Clear,0,2012-11-05 13:15:00
5:35 AM,48.2,48.2,100,30.38,4.0,Calm,Calm,-,0.00,,Clear,0,2012-11-05 13:35:00
5:55 AM,48.2,48.2,100,30.37,5.0,Calm,Calm,-,0.00,,Clear,0,2012-11-05 13:55:00
6:15 AM,46.4,46.4,100,30.38,2.5,Calm,Calm,-,0.00,,Clear,0,2012-11-05 14:15:00
6:35 AM,46.4,46.4,100,30.38,2.5,Calm,Calm,-,0.00,,Clear,0,2012-11-05 14:35:00
6:55 AM,44.6,44.6,100,30.38,0.8,Calm,Calm,-,0.00,,Unknown,0,2012-11-05 14:55:00
7:15 AM,46.4,46.4,100,30.38,2.5,West,4.6,-,0.00,,Clear,260,2012-11-05 15:15:00
7:55 AM,46.4,46.4,100,30.38,5.0,West,4.6,-,0.00,,Clear,280,2012-11-05 15:55:00
8:15 AM,46.4,46.4,100,30.39,4.0,Calm,Calm,-,0.00,,Clear,0,2012-11-05 16:15:00
8:35 AM,48.2,48.2,100,30.39,5.0,East,4.6,-,0.00,,Clear,90,2012-11-05 16:35:00
8:55 AM,48.2,48.2,100,30.39,4.0,Calm,Calm,-,0.00,,Clear,0,2012-11-05 16:55:00
9:15 AM,50.0,50.0,100,30.39,4.0,Calm,Calm,-,0.00,,Clear,0,2012-11-05 17:15:00
9:35 AM,51.8,51.8,100,30.39,4.0,ESE,3.5,-,0.00,,Clear,120,2012-11-05 17:35:00
9:55 AM,51.8,51.8,100,30.40,5.0,SE,3.5,-,0.00,,Clear,130,2012-11-05 17:55:00
10:15 AM,53.6,51.8,94,30.39,5.0,SE,3.5,-,0.00,,Clear,130,2012-11-05 18:15:00
10:35 AM,53.6,51.8,94,30.40,5.0,Calm,Calm,-,0.00,,Clear,0,2012-11-05 18:35:00
10:55 AM,53.6,48.2,82,30.40,5.0,Calm,Calm,-,0.00,,Clear,0,2012-11-05 18:55:00
11:15 AM,55.4,50.0,82,30.40,5.0,Calm,Calm,-,0.00,,Clear,0,2012-11-05 19:15:00
11:35 AM,55.4,50.0,82,30.40,5.0,SSE,3.5,-,0.00,,Clear,160,2012-11-05 19:35:00
11:55 AM,55.4,50.0,82,30.40,5.0,SSW,5.8,-,0.00,,Clear,210,2012-11-05 19:55:00
12:35 PM,55.4,48.2,77,30.40,6.0,SSW,5.8,-,0.00,,Clear,210,2012-11-05 20:35:00
12:55 PM,55.4,48.2,77,30.39,6.0,Calm,Calm,-,0.00,,Clear,0,2012-11-05 20:55:00
1:15 PM,57.2,48.2,72,30.39,5.0,Calm,Calm,-,0.00,,Clear,0,2012-11-05 21:15:00
1:35 PM,55.4,50.0,82,30.38,7.0,South,5.8,-,0.00,,Clear,180,2012-11-05 21:35:00
1:55 PM,57.2,48.2,72,30.39,7.0,SSW,4.6,-,0.00,,Clear,210,2012-11-05 21:55:00
2:15 PM,57.2,46.4,67,30.37,7.0,South,3.5,-,0.00,,Clear,190,2012-11-05 22:15:00
2:35 PM,55.4,46.4,72,30.36,2.5,Calm,Calm,-,0.00,,Clear,0,2012-11-05 22:35:00
2:55 PM,55.4,46.4,72,30.36,7.0,Calm,Calm,-,0.00,,Clear,0,2012-11-05 22:55:00
3:15 PM,55.4,46.4,72,30.35,7.0,Calm,Calm,-,0.00,,Clear,0,2012-11-05 23:15:00
3:35 PM,53.6,48.2,82,30.36,7.0,Calm,Calm,-,0.00,,Clear,0,2012-11-05 23:35:00
3:55 PM,53.6,51.8,94,30.36,6.0,Calm,Calm,-,0.00,,Clear,0,2012-11-05 23:55:00
4:15 PM,53.6,46.4,77,30.35,7.0,NW,5.8,-,0.00,,Clear,320,2012-11-06 00:15:00
4:35 PM,51.8,48.2,88,30.34,7.0,NW,4.6,-,0.00,,Clear,310,2012-11-06 00:35:00
4:55 PM,50.0,48.2,94,30.34,7.0,NW,6.9,-,0.00,,Clear,310,2012-11-06 00:55:00
5:15 PM,50.0,48.2,94,30.32,9.0,NNW,8.1,-,0.00,,Clear,330,2012-11-06 01:15:00
5:55 PM,50.0,46.4,87,30.31,10.0,NNW,9.2,-,0.00,,Clear,330,2012-11-06 01:55:00
6:15 PM,50.0,46.4,87,30.32,10.0,NW,10.4,-,0.00,,Clear,320,2012-11-06 02:15:00
6:35 PM,50.0,46.4,87,30.30,10.0,NW,9.2,-,0.00,,Clear,320,2012-11-06 02:35:00
6:55 PM,50.0,46.4,87,30.30,10.0,NW,8.1,-,0.00,,Clear,320,2012-11-06 02:55:00
7:15 PM,50.0,46.4,87,30.28,10.0,North,6.9,-,0.00,,Clear,350,2012-11-06 03:15:00
7:35 PM,48.2,46.4,93,30.28,10.0,NNW,6.9,-,0.00,,Mostly Cloudy,330,2012-11-06 03:35:00
7:55 PM,50.0,46.4,87,30.27,10.0,NNW,6.9,-,0.00,,Overcast,340,2012-11-06 03:55:00
8:15 PM,48.2,48.2,100,30.25,9.0,NW,5.8,-,0.00,,Mostly Cloudy,320,2012-11-06 04:15:00
8:35 PM,48.2,46.4,93,30.24,10.0,NW,4.6,-,0.00,,Clear,320,2012-11-06 04:35:00
8:55 PM,48.2,48.2,100,30.23,9.0,NNE,5.8,-,0.00,,Clear,30,2012-11-06 04:55:00
9:15 PM,50.0,48.2,94,30.23,10.0,NNE,6.9,-,0.00,,Scattered Clouds,30,2012-11-06 05:15:00
9:35 PM,50.0,48.2,94,30.23,10.0,NE,5.8,-,0.00,,Mostly Cloudy,40,2012-11-06 05:35:00
9:55 PM,50.0,48.2,94,30.22,10.0,NE,6.9,-,0.00,,Partly Cloudy,50,2012-11-06 05:55:00
10:15 PM,48.2,48.2,100,30.22,10.0,NE,5.8,-,0.00,,Clear,50,2012-11-06 06:15:00
10:35 PM,48.2,48.2,100,30.22,10.0,NNE,6.9,-,0.00,,Clear,30,2012-11-06 06:35:00
10:55 PM,48.2,48.2,100,30.20,10.0,NE,4.6,-,0.00,,Clear,40,2012-11-06 06:55:00
11:15 PM,50.0,48.2,94,30.19,10.0,NE,6.9,-,0.00,,Clear,50,2012-11-06 07:15:00
11:35 PM,48.2,48.2,100,30.19,9.0,NE,3.5,-,0.00,,Clear,50,2012-11-06 07:35:00
11:55 PM,48.2,48.2,100,30.19,10.0,NNW,3.5,-,0.00,,Clear,330,2012-11-06 07:55:00